www.pogodaiklimat.ru

АРХИВ ПОГОДЫ в Сидар-Рапидсе

Время (UTC), дата Ветер
(напр.,м/с)
 
Видим.   Явления Облачность Т
(С)
Тd
(С)
f
(%)
Тe
(С)
Тes
(С)
Комфортность

P
(гПа)

Po
(гПа)
Тmin
(С)
Tmax
(С)
R
(мм)
SD
(см)
07:52 14.07 Ю  16 км    ясно  +23.3  +21.7  91  +32  +32  очень
душно 
1017.0  986.5         
08:52 14.07 С  16 км    ясно  +23.3  +21.7  91  +32  +32  очень
душно 
1017.5  986.8         
09:52 14.07 СВ  16 км    ясно  +22.8  +21.1  90  +30  +30  очень
душно 
1017.5  986.8         
10:52 14.07 В  14 км    ясно  +22.8  +21.7  94  +31  +31  очень
душно 
1017.5  986.8  +22.2  +23.9     
11:52 14.07 ЮВ  16 км    ясно  +25.0  +22.2  84  +32  +34  очень
душно 
1017.7  987.1         
12:52 14.07 Ю  16 км    ясно  +27.2  +23.3  79  +37  +41  очень
душно 
1018.1  987.5         
13:52 14.07 ЮЗ  16 км    ясно  +28.9  +23.3  72  +39  +47  очень
душно 
1018.0  987.5         
14:52 14.07 нст  16 км    ясно  +30.0  +22.8  65  +40  +50  очень
душно 
1018.1  987.5         
15:52 14.07 ЮЗ  16 км    2/2 1230 м  +31.1  +21.7  57  +39  +50  очень
душно 
1017.8  987.1         
16:52 14.07 ЮЗ  16 км    5/5 1350 м  +31.1  +21.7  57  +39  +45  очень
душно 
1017.3  986.5  +22.8  +31.1     
17:52 14.07 Ю  16 км    ясно  +32.2  +21.1  52  +40  +51  опасность
солнечного
удара 
1017.1  986.5         
18:52 14.07 ЮЗ  16 км    ясно  +32.2  +21.1  52  +40  +52  опасность
солнечного
удара 
1016.7  986.1         
19:52 14.07 Ю  16 км    2/2 1500 м  +32.2  +20.6  50  +39  +44  очень
душно 
1016.2  985.5         
20:52 14.07 Ю  16 км    ясно  +30.6  +20.6  55  +38  +45  очень
душно 
1016.1  985.5         
21:52 14.07 Ю  16 км    ясно  +31.7  +20.0  50  +38  +44  очень
душно 
1015.7  985.2         
22:52 14.07 Ю  16 км    ясно  +30.6  +21.1  57  +38  +41  очень
душно 
1015.8  985.2  +30.6  +32.2     
23:52 14.07 Ю  16 км    ясно  +28.3  +21.1  65  +36  +37  очень
душно 
1015.5  984.8         
00:52 15.07 Ю  16 км    ясно  +25.0  +20.6  77  +31  +31  очень
душно 
1015.1  984.5         
01:52 15.07   16 км    ясно  +24.4  +20.6  79  +30  +30  очень
душно 
1015.7  985.2         
02:52 15.07 ЮВ  16 км    ясно  +23.9  +20.6  82  +30  +30  очень
душно 
1016.0  985.5         
03:52 15.07 Ю  16 км    ясно  +23.9  +20.0  79  +29  +29  душно  1015.8  985.2         
04:52 15.07 Ю  16 км    ясно  +23.9  +20.6  82  +30  +30  очень
душно 
1015.6  984.8  +23.3  +30.6     
05:52 15.07 Ю  16 км    ясно  +23.9  +21.7  88  +31  +31  очень
душно 
1015.1  984.5         
06:52 15.07 Ю  16 км    ясно  +23.3  +21.7  91  +32  +32  очень
душно 
1015.5  984.8         
07:52 15.07 ЮЗ  16 км    ясно  +23.3  +21.1  87  +31  +31  очень
душно 
1015.5  984.8         
08:52 15.07 Ю  16 км    ясно  +22.8  +21.1  90  +30  +30  очень
душно 
1015.5  984.8         
09:52 15.07 Ю  16 км    ясно  +21.7  +20.6  93  +27  +27  душно  1016.1  985.5         
10:52 15.07 Ю  16 км    ясно  +22.2  +20.6  91  +29  +29  очень
душно 
1016.5  985.8  +21.7  +23.9     
11:52 15.07 Ю  16 км    ясно  +23.3  +20.0  82  +30  +31  очень
душно 
1016.5  985.8         
12:52 15.07 ЮЗ  16 км    ясно  +24.4  +19.4  74  +30  +31  очень
душно 
1016.7  985.8         
13:52 15.07 Ю  7
{10} 
16 км    ясно  +25.6  +19.4  69  +31  +32  очень
душно 
1016.2  985.5         
14:52 15.07 Ю  5
{10} 
16 км    ясно  +26.7  +19.4  64  +32  +36  очень
душно 
1016.0  985.2         
15:52 15.07 ЮЗ  6
{10} 
16 км    ясно  +28.3  +18.9  57  +34  +39  очень
душно 
1015.6  984.8         
16:52 15.07 Ю  7
{13} 
16 км    ясно  +28.9  +19.4  57  +35  +38  очень
душно 
1014.8  984.2  +22.2  +28.9     
17:52 15.07 Ю  8
{11} 
16 км    ясно  +30.0  +19.4  53  +36  +38  очень
душно 
1014.4  983.8         
18:52 15.07 Ю  8
{12} 
16 км    ясно  +30.6  +20.0  53  +37  +39  очень
душно 
1013.7  983.2         
19:52 15.07 Ю  8
{13} 
16 км    5/5 1410 м  +30.0  +20.6  57  +37  +38  очень
душно 
1013.7  983.2         
20:52 15.07 Ю  8
{11} 
16 км    5/5 1500 м  +30.0  +20.0  55  +36  +37  очень
душно 
1013.2  982.5         
21:52 15.07 Ю  16 км    2/2 1500 м  +29.4  +20.0  57  +36  +37  очень
душно 
1012.4  981.9         
22:52 15.07 Ю  16 км    ясно  +27.8  +18.9  58  +33  +34  очень
душно 
1012.1  981.6  +27.8  +30.6     
23:52 15.07 Ю  16 км    ясно  +26.7  +18.9  62  +32  +33  очень
душно 
1012.3  981.6         
00:52 16.07 Ю  16 км    ясно  +25.0  +19.4  71  +30  +30  душно  1013.0  982.5         
01:52 16.07 Ю  16 км    ясно  +23.3  +19.4  79  +30  +30  очень
душно 
1013.9  983.2         
02:52 16.07 Ю  16 км    ясно  +22.2  +19.4  84  +28  +28  душно  1013.8  983.2         
03:52 16.07 Ю  16 км    ясно  +21.7  +19.4  87  +27  +27  душно  1013.2  982.5         
04:52 16.07 Ю  16 км    ясно  +21.1  +19.4  90  +26  +26  душно  1012.6  981.9  +21.1  +27.8     
05:52 16.07 С  16 км    ясно  +20.6  +18.9  90  +25  +25  комфорт  1013.1  982.5         
06:52 16.07   16 км    ясно  +20.0  +18.9  93  +23  +23  комфорт  1013.2  982.5         

 

Местоположение метеостанции The Eastern Iowa Airport: широта 41.8844 долгота -91.7106 высота над уровнем моря 263 м.

В архиве по умолчанию представлена погода в Сидар-Рапидсе за последние 1-2 суток. Обновление информации о фактической погоде в базе происходит ежечасно! Архивные данные за месяц целиком и за предыдущие месяцы Вы можете получить, выбрав интересующий диапазон дат из раскрывающегося списка и нажав кнопку "Ввод!".

Внимание! Архив погоды МЕТАР в базе сайта в настоящее время начинается c 1 января 2011 г. Нет смысла пытаться выбрать более раннюю дату.

Внимание! Время в таблицах - всемирное. Для получения местного времени необходимо прибавить поправку, которая в Сидар-Рапидсе равна -6 ч.

Ветер - указаны скорость ветра в м/с и направление, откуда дует ветер: С - северный, СВ - северо-восточный, В - восточный, ЮВ - юго-восточный, Ю - южный, ЮЗ - юго-западный, З - западный, СЗ - северо-западный.
Видимость - горизонтальная дальность видимости в метрах или километрах. При видимости от 1 до 10 км при отсутствии осадков обычно наблюдается дымка, при ухудшении видимости до 1 км и менее - туман. В сухую погоду видимость может ухудшаться дымом, пылью или мглою.
Атмосферные явления - указаны явления, наблюдавшиеся в указанный момент времени.
Облачность - указаны через наклонную черту верхняя и нижняя облачность в баллах и высота нижней границы облаков в метрах. Внимание: облачность, как и прочие метеорологические величины в США измеряются автоматическими метеостанциями. Указанные значения в баллах носят условный характер и показывают процент времени, в течение которого, в среднем, лазерный луч высотомера отражался от облаков обратно.
T - Температура воздуха - температура, измеренная на высоте 2 м над землей.
Td - Температура точки росы - температура, при понижении до которой содержащийся в воздухе водяной пар достигнет насыщения.
f - Относительная влажность воздуха - влажноcть воздуха, измеренная на высоте 2 м над землей.
Te - Эффективная температура - температура, которую ощущает одетый по сезону человек в тени. Характеристика душности погоды. При расчете учитывается влияние влажности воздуха и скорости ветра на теплоощущения человека.
Tes - Эффективная температура на солнце - температура, которую ощущает человек, с поправкой на солнечный нагрев. Характеристика знойности погоды. Зависит от высоты солнца над горизонтом, облачности и скорости ветра. Ночью, в пасмурную погоду, а также при ветре 12 м/с и более поправка равна нулю.
P - Атмосферное давление - приведенное к уровню моря атмосферное давление.
Po - Атмосферное давление - измеренное на уровне метеостанции атмосферное давление.
Tmin - Минимальная температура - минимум температуры воздуха на высоте 2 м над землей.
Tmax - Максимальная температура - максимум температуры воздуха на высоте 2 м над землей.
R - Количество осадков - Количество выпавших осадков за 3 или 6 часов, мм.
SD - Снежный покров - Высота снежного покрова, см.